IRIDIUM 172

Last updated on Sun Jun 21 2026 00:03:14 GMT+0000 (Coordinated Universal Time)

1 43927U 19002F 26171.45947315 .00000160 00000+0 50236-4 0 9998 2 43927 86.3971 352.2033 0002252 88.6812 271.4642 14.34219590389434
UTC large
Height (km)
Speed (km/s)
/
Latitude / Longitude
Inclination (degrees)
Orbital Period (minutes)
Azimuth
Elevation
Range (km)
Doppler Factor

Next 0 passes for location: London (51.5072 / 0.1276)

No passes found over London.
IRIDIUM 172